Regional Weather Roundup
Issued by NWS

Home | Current Version | Previous Version | Text Only | Print | Product List | Glossary Off
Versions: 1 2 3 4 5 6 7 8 9 10 11 12 13 14 15 16 17 18 19 20 21 22 23 24 25 26 27 28 29 30 31 32 33 34 35 36 37 38 39 40 41 42 43 44 45 46 47 48 49 50

000
ASUS43 KBIS 231210
RWRND

NORTH DAKOTA REGIONAL WEATHER ROUNDUP
NATIONAL WEATHER SERVICE BISMARCK ND
700 AM CDT SAT SEP 23 2017

NOTE: "FAIR" INDICATES FEW OR NO CLOUDS BELOW 12,000 FEET WITH NO
SIGNIFICANT WEATHER AND/OR OBSTRUCTIONS TO VISIBILITY.


NDZ001>003-009>011-017-231300-
NORTHWEST NORTH DAKOTA

CITY           SKY/WX    TMP DP  RH WIND       PRES   REMARKS
WILLISTON      CLOUDY    45  42  89 N5        30.11R
6HR MIN TEMP:  43; 6HR MAX TEMP:  45;

MINOT          CLOUDY    47  44  90 NW8       30.06S
MINOT AFB      CLOUDY    46  44  91 NW8       30.04S
$$

NDZ018>021-031>035-040>046-231300-
SOUTHWEST NORTH DAKOTA

CITY           SKY/WX    TMP DP  RH WIND       PRES   REMARKS
BISMARCK       CLOUDY    49  47  93 N9        30.05R
6HR MIN TEMP:  49; 6HR MAX TEMP:  50; 6HR PCP:  0.02;

GARRISON         N/A     44  43  96 N6        30.06S
6HR MIN TEMP:  43; 6HR MAX TEMP:  47; 6HR PCP:  0.05;

HETTINGER ARPT CLOUDY    43  40  89 N8        30.08S
$$

NDZ004>008-012>016-024-026-027-054-231300-
NORTHEAST NORTH DAKOTA

CITY           SKY/WX    TMP DP  RH WIND       PRES   REMARKS
GRAND FORKS    CLOUDY    51  49  92 NW9       29.97R
GRND FRKS AFB  CLOUDY    51  46  84 N15       29.98R
DEVILS LAKE    CLOUDY    48  43  82 N14       30.03S
$$

NDZ022-023-025-028>030-036>039-047>053-231300-
SOUTHEAST NORTH DAKOTA

CITY           SKY/WX    TMP DP  RH WIND       PRES   REMARKS
FARGO          CLOUDY    52  49  89 N15       29.97R
6HR MIN TEMP:  52; 6HR MAX TEMP:  57;

JAMESTOWN      CLOUDY    49  45  86 N9        30.00R
$$





USA.gov is the U.S. government's official web portal to all federal, state and local government web resources and services.